When you browse on this site, cookies collect data to enhance your experience and personalize the content and advertising you see.
Visit our Privacy Policy to learn more. By continuing to use the site, you agree to this use of cookies and data.
  • In Denmark
  • List of Countries
  • For 7 days
  • Water Temperature
  • Satellite Maps
  • Weather Map
  • Weather Widgets
  • user-avatar
    Login

    Hourly Weather Hlopovo

    Today, 26 May, Sunday

    Time Temperature Precipitation Wind Pressure Humidity
    00:00 +14°C° 0 mm 3 mps 736 mmHg 95%
    01:00 +13°C° 0 mm 3 mps 736 mmHg 96%
    02:00 +13°C° 0 mm 3 mps 736 mmHg 97%
    03:00 +12°C° 0 mm 3 mps 735 mmHg 97%
    04:00 +13°C° 0 mm 3 mps 735 mmHg 97%
    05:00 +13°C° 0 mm 3 mps 735 mmHg 97%
    06:00 +13°C° 0 mm 3 mps 735 mmHg 97%
    07:00 +15°C° 0 mm 2 mps 735 mmHg 94%
    08:00 +16°C° 0 mm 2 mps 735 mmHg 92%
    09:00 +17°C° 0 mm 2 mps 735 mmHg 90%
    10:00 +17°C° 0.1 mm 2 mps 735 mmHg 89%
    11:00 +17°C° 0.1 mm 2 mps 735 mmHg 88%
    12:00 +18°C° 0.1 mm 3 mps 735 mmHg 87%
    13:00 +18°C° 0.3 mm 3 mps 735 mmHg 85%
    14:00 +18°C° 0.3 mm 3 mps 734 mmHg 83%
    15:00 +19°C° 0.3 mm 2 mps 734 mmHg 81%
    16:00 +19°C° 0.7 mm 2 mps 734 mmHg 81%
    17:00 +19°C° 0.7 mm 2 mps 734 mmHg 82%
    18:00 +20°C° 0.7 mm 1 mps 734 mmHg 82%
    19:00 +19°C° 0.2 mm 1 mps 734 mmHg 84%
    20:00 +17°C° 0.2 mm 2 mps 734 mmHg 86%
    21:00 +16°C° 0.2 mm 2 mps 734 mmHg 88%
    22:00 +15°C° 0 mm 2 mps 735 mmHg 88%
    23:00 +13°C° 0 mm 3 mps 735 mmHg 89%

    Tomorrow, 27 May, Monday

    Time Temperature Precipitation Wind Pressure Humidity
    00:00 +13°C° 0 mm 3 mps 735 mmHg 90%
    01:00 +12°C° 0 mm 4 mps 735 mmHg 91%
    02:00 +12°C° 0 mm 4 mps 736 mmHg 91%
    03:00 +11°C° 0 mm 4 mps 736 mmHg 92%
    04:00 +11°C° 0 mm 4 mps 736 mmHg 91%
    05:00 +11°C° 0 mm 4 mps 737 mmHg 89%
    06:00 +11°C° 0 mm 4 mps 737 mmHg 88%
    07:00 +13°C° 0 mm 4 mps 738 mmHg 84%
    08:00 +14°C° 0 mm 4 mps 738 mmHg 79%
    09:00 +15°C° 0 mm 5 mps 739 mmHg 74%
    10:00 +16°C° 0 mm 5 mps 739 mmHg 71%
    11:00 +17°C° 0 mm 5 mps 739 mmHg 68%
    12:00 +19°C° 0 mm 5 mps 740 mmHg 65%
    13:00 +19°C° 0 mm 5 mps 740 mmHg 64%
    14:00 +20°C° 0 mm 5 mps 740 mmHg 64%
    15:00 +20°C° 0 mm 5 mps 740 mmHg 63%
    16:00 +20°C° 0 mm 5 mps 740 mmHg 65%
    17:00 +20°C° 0 mm 4 mps 741 mmHg 68%
    18:00 +20°C° 0 mm 3 mps 741 mmHg 70%
    19:00 +18°C° 0 mm 3 mps 741 mmHg 75%
    20:00 +17°C° 0 mm 3 mps 741 mmHg 79%
    21:00 +16°C° 0 mm 3 mps 742 mmHg 84%
    22:00 +14°C° 0 mm 3 mps 742 mmHg 85%
    23:00 +14°C° 0 mm 3 mps 742 mmHg 87%

    Day after tomorrow, 28 May, Tuesday

    Time Temperature Precipitation Wind Pressure Humidity
    00:00 +13°C° 0 mm 3 mps 742 mmHg 89%
    01:00 +13°C° 0 mm 3 mps 742 mmHg 89%
    02:00 +13°C° 0 mm 3 mps 743 mmHg 89%
    03:00 +13°C° 0 mm 3 mps 743 mmHg 90%
    04:00 +13°C° 0 mm 4 mps 743 mmHg 90%
    05:00 +14°C° 0 mm 4 mps 743 mmHg 89%
    06:00 +14°C° 0 mm 4 mps 743 mmHg 89%
    07:00 +17°C° 0 mm 4 mps 743 mmHg 85%
    08:00 +19°C° 0 mm 5 mps 743 mmHg 82%
    09:00 +21°C° 0 mm 5 mps 743 mmHg 78%
    10:00 +22°C° 0.1 mm 5 mps 743 mmHg 74%
    11:00 +23°C° 0.1 mm 5 mps 743 mmHg 71%
    12:00 +25°C° 0.1 mm 5 mps 743 mmHg 68%
    13:00 +26°C° 0.2 mm 5 mps 743 mmHg 66%
    14:00 +26°C° 0.2 mm 5 mps 743 mmHg 65%
    15:00 +27°C° 0.2 mm 5 mps 744 mmHg 63%
    16:00 +26°C° 0.1 mm 4 mps 743 mmHg 68%
    17:00 +26°C° 0.1 mm 4 mps 743 mmHg 72%
    18:00 +25°C° 0.1 mm 3 mps 743 mmHg 76%
    19:00 +24°C° 0 mm 3 mps 743 mmHg 80%
    20:00 +21°C° 0 mm 3 mps 743 mmHg 84%
    21:00 +20°C° 0 mm 3 mps 744 mmHg 89%
    22:00 +19°C° 0 mm 3 mps 744 mmHg 90%
    23:00 +19°C° 0 mm 3 mps 744 mmHg 91%

    29 May, Wednesday

    Time Temperature Precipitation Wind Pressure Humidity
    00:00 +18°C° 0 mm 3 mps 744 mmHg 92%
    01:00 +18°C° 0 mm 3 mps 744 mmHg 92%
    02:00 +18°C° 0 mm 3 mps 744 mmHg 93%
    03:00 +17°C° 0 mm 3 mps 745 mmHg 93%
    04:00 +18°C° 0 mm 3 mps 745 mmHg 92%
    05:00 +18°C° 0 mm 3 mps 745 mmHg 91%
    06:00 +19°C° 0 mm 3 mps 745 mmHg 89%
    07:00 +20°C° 0 mm 3 mps 745 mmHg 84%
    08:00 +22°C° 0 mm 4 mps 745 mmHg 79%
    09:00 +25°C° 0 mm 4 mps 745 mmHg 74%
    10:00 +26°C° 0 mm 4 mps 745 mmHg 70%
    11:00 +26°C° 0 mm 4 mps 745 mmHg 66%
    12:00 +27°C° 0 mm 5 mps 745 mmHg 62%
    13:00 +27°C° 0.1 mm 5 mps 745 mmHg 62%
    14:00 +28°C° 0.1 mm 5 mps 745 mmHg 62%
    15:00 +28°C° 0.1 mm 5 mps 745 mmHg 63%
    16:00 +27°C° 0.6 mm 4 mps 745 mmHg 67%
    17:00 +27°C° 0.6 mm 4 mps 745 mmHg 72%
    18:00 +26°C° 0.6 mm 3 mps 744 mmHg 76%
    19:00 +25°C° 0.2 mm 3 mps 744 mmHg 80%
    20:00 +22°C° 0.2 mm 3 mps 744 mmHg 84%
    21:00 +21°C° 0.2 mm 3 mps 744 mmHg 87%
    22:00 +20°C° 0 mm 3 mps 745 mmHg 89%
    23:00 +20°C° 0 mm 3 mps 745 mmHg 91%

    30 May, Thursday

    Time Temperature Precipitation Wind Pressure Humidity
    00:00 +19°C° 0 mm 3 mps 745 mmHg 92%
    01:00 +19°C° 0 mm 3 mps 745 mmHg 93%
    02:00 +18°C° 0 mm 3 mps 745 mmHg 93%
    03:00 +18°C° 0 mm 3 mps 745 mmHg 94%
    04:00 +18°C° 0 mm 3 mps 745 mmHg 93%
    05:00 +18°C° 0 mm 3 mps 745 mmHg 92%
    06:00 +19°C° 0 mm 3 mps 745 mmHg 91%
    07:00 +20°C° 0 mm 3 mps 745 mmHg 86%
    08:00 +22°C° 0 mm 4 mps 745 mmHg 80%
    09:00 +23°C° 0 mm 4 mps 745 mmHg 75%
    10:00 +25°C° 0 mm 5 mps 745 mmHg 70%
    11:00 +26°C° 0 mm 5 mps 745 mmHg 65%
    12:00 +27°C° 0 mm 5 mps 745 mmHg 60%
    13:00 +27°C° 0 mm 5 mps 745 mmHg 60%
    14:00 +27°C° 0 mm 5 mps 745 mmHg 60%
    15:00 +27°C° 0 mm 5 mps 744 mmHg 60%
    16:00 +27°C° 0 mm 5 mps 744 mmHg 64%
    17:00 +27°C° 0 mm 4 mps 744 mmHg 68%
    18:00 +27°C° 0 mm 3 mps 744 mmHg 71%
    19:00 +25°C° 0 mm 3 mps 744 mmHg 75%
    20:00 +24°C° 0 mm 3 mps 744 mmHg 79%
    21:00 +21°C° 0 mm 3 mps 744 mmHg 83%
    22:00 +20°C° 0 mm 3 mps 744 mmHg 85%
    23:00 +20°C° 0 mm 3 mps 744 mmHg 86%

    31 May, Friday

    Time Temperature Precipitation Wind Pressure Humidity
    00:00 +19°C° 0 mm 3 mps 744 mmHg 87%
    01:00 +19°C° 0 mm 3 mps 744 mmHg 89%
    02:00 +18°C° 0 mm 3 mps 744 mmHg 90%
    03:00 +18°C° 0 mm 3 mps 744 mmHg 91%
    04:00 +18°C° 0 mm 3 mps 744 mmHg 90%
    05:00 +19°C° 0 mm 3 mps 744 mmHg 89%
    06:00 +19°C° 0 mm 3 mps 744 mmHg 88%
    07:00 +21°C° 0 mm 4 mps 744 mmHg 83%
    08:00 +22°C° 0 mm 4 mps 744 mmHg 78%
    09:00 +25°C° 0 mm 5 mps 744 mmHg 72%
    10:00 +26°C° 0 mm 5 mps 744 mmHg 68%
    11:00 +27°C° 0 mm 5 mps 744 mmHg 64%
    12:00 +28°C° 0 mm 5 mps 744 mmHg 60%
    13:00 +28°C° 0 mm 5 mps 743 mmHg 59%
    14:00 +28°C° 0 mm 5 mps 743 mmHg 58%
    15:00 +29°C° 0 mm 5 mps 743 mmHg 57%
    16:00 +28°C° 0.8 mm 4 mps 743 mmHg 62%
    17:00 +27°C° 0.8 mm 3 mps 743 mmHg 68%
    18:00 +26°C° 0.8 mm 2 mps 743 mmHg 73%
    19:00 +25°C° 0.3 mm 2 mps 743 mmHg 76%
    20:00 +23°C° 0.3 mm 1 mps 744 mmHg 79%
    21:00 +21°C° 0.3 mm 1 mps 744 mmHg 82%
    22:00 +20°C° 0 mm 2 mps 744 mmHg 85%
    23:00 +19°C° 0 mm 2 mps 744 mmHg 89%
    Show more